Temp
11 11 11 11 12 12 12 12 13 13 13 13 14 14 13 13 13 13 13 12 12 12 11 11 11 10 10 9 9 9 9 9 9 10 10 11 11 11 10 10 10 10 10 10
11 11 11 11 11 11 12 12 12 12 13 13 14 14 14 14 14 13 13 13 12 12 12 11 11 11 10 10 10 10 9 9 9 10 9 10 10 10 10 10 10 10 10 10
10 10 10 10 10 11 11 12 12 12 13 13 14 14 15 14 14 14 14 13 13 13 12 12 12 12 11 11 11 10 10 10 10 9 10 10 11 10 10 11 11 11 11 11
10 10 10 10 10 10 11 11 11 12 12 13 13 15 15 14 14 14 14 15 14 14 13 13 12 12 12 12 11 10 10 10 10 10 10 10 10 11 11 11 11 11 11 11
10 10 10 10 10 10 10 11 11 12 12 12 13 13 14 15 15 15 15 15 15 15 14 13 13 13 12 12 12 11 11 11 10 10 10 10 11 10 10 11 11 11 11 11
10 10 10 10 10 10 10 10 11 11 12 13 13 13 15 14 15 15 14 14 14 15 15 14 13 12 12 12 11 11 11 11 11 11 10 11 11 11 11 11 11 11 11 11
9 9 9 9 9 9 10 10 12 13 13 14 13 13 14 14 14 14 14 14 15 15 15 15 14 14 13 12 12 12 11 12 11 11 11 11 11 11 11 11 11 11 11 11
9 9 8 9 9 9 9 9 10 11 13 14 11 13 14 14 14 14 14 15 15 15 15 15 16 14 14 13 12 12 12 12 12 12 12 11 11 11 11 11 11 11 11 11
8 8 8 8 8 8 8 8 8 9 9 10 12 11 13 13 13 14 14 15 15 15 15 16 16 15 14 13 13 13 13 12 12 12 12 12 11 11 12 11 11 11 11 11
6 7 7 7 7 7 7 8 8 8 10 10 11 10 12 13 13 14 14 15 15 15 15 16 16 16 15 14 13 12 12 13 12 12 12 12 12 11 11 11 11 11 11 10
6 5 6 6 6 6 6 6 7 8 7 10 11 12 11 11 11 12 13 14 14 15 15 16 16 16 16 14 13 12 12 12 12 12 12 12 12 12 11 11 11 11 10 10
5 5 5 5 5 6 5 5 6 7 7 7 6 9 10 10 10 11 12 13 13 15 15 15 16 16 16 15 14 13 12 12 12 12 11 12 12 12 12 11 11 10 10 10
4 4 5 6 5 5 5 5 5 5 5 6 7 9 9 10 10 11 11 12 13 14 14 14 15 15 15 15 14 13 12 12 12 11 11 11 11 12 12 12 11 11 10 10
4 4 4 6 6 5 4 5 4 4 5 6 7 7 7 8 8 9 9 10 11 12 13 14 14 15 14 14 14 14 13 12 12 11 11 11 11 11 11 12 11 11 11 10
3 3 3 3 4 4 4 3 3 4 4 4 6 6 7 7 7 7 8 9 10 11 13 13 14 14 14 14 14 14 13 12 12 11 11 11 11 11 10 11 11 11 11 10
2 2 3 3 3 3 3 3 4 4 5 5 4 6 7 6 6 6 6 8 9 11 11 12 13 14 13 13 13 12 12 12 12 12 12 11 11 10 10 10 10 11 11 10
2 2 1 3 3 2 2 4 5 4 4 4 4 5 4 5 5 5 6 7 8 9 10 11 12 12 12 12 12 12 12 11 11 12 12 11 11 11 10 10 9 10 10 10
2 1 1 2 2 4 4 3 3 4 4 4 3 4 4 4 4 4 4 6 7 8 9 10 10 11 12 12 11 11 12 11 11 11 11 11 11 11 11 10 9 9 9 10
1 1 1 1 2 2 2 3 3 3 3 2 3 4 4 3 3 3 4 5 6 6 7 9 9 10 11 11 11 11 11 11 10 10 10 10 10 10 11 10 10 9 9 9
1 1 0 0 1 3 3 2 2 2 1 2 2 3 3 3 3 4 4 4 5 6 6 8 9 9 10 11 11 11 11 11 11 11 10 9 10 10 10 10 9 9 8 8
0 0 -0 0 0 1 1 1 1 0 2 2 1 2 2 2 2 3 4 4 4 4 5 6 7 8 9 10 10 11 11 11 11 11 9 9 10 9 10 9 11 9 9 8
-0 -0 -0 -1 -1 1 0 0 -1 -0 1 -1 -0 1 2 2 3 3 4 5 6 5 5 6 5 6 8 9 10 10 11 11 11 12 9 9 9 9 9 10 9 8 8 9
-0 -1 -1 -1 -0 -1 -2 -2 -2 -2 -1 -0 0 1 2 2 2 2 3 4 5 4 4 5 5 5 7 8 9 9 8 7 8 8 7 8 8 8 8 8 7 6 7 8
-0 -0 -1 -1 0 -1 -1 -1 -2 -2 -1 -1 0 1 2 2 1 2 2 1 2 3 5 4 5 5 5 6 7 7 7 7 7 7 7 7 8 8 8 7 6 5 7 7
0 -0 -0 -0 -1 -1 -1 -2 -1 -1 -1 -0 1 1 1 1 1 1 1 0 2 0 1 2 5 5 4 6 5 5 5 5 6 6 6 6 7 7 7 6 6 5 6 6
0 -0 -1 -1 -1 -2 -2 -2 -2 -1 -1 0 1 0 0 0 0 0 0 -0 1 -0 -0 3 4 3 4 4 4 4 4 5 5 6 6 6 6 6 6 5 5 5 5 5
Height
3183 3186 3187 3187 3188 3189 3189 3190 3188 3188 3187 3186 3186 3185 3186 3186 3187 3190 3191 3192 3194 3196 3198 3198 3200 3201 3203 3204 3206 3209 3210 3212 3214 3216 3219 3221 3224 3226 3229 3231 3234 3237 3239 3241
3184 3185 3185 3186 3187 3189 3189 3188 3188 3188 3187 3187 3185 3184 3184 3184 3185 3188 3190 3191 3193 3194 3195 3197 3198 3199 3201 3203 3205 3208 3209 3211 3213 3216 3218 3221 3224 3225 3228 3230 3234 3237 3239 3241
3182 3184 3184 3185 3186 3187 3187 3188 3187 3188 3186 3186 3185 3183 3183 3184 3184 3185 3186 3189 3190 3192 3194 3195 3196 3197 3199 3201 3203 3205 3208 3210 3213 3215 3217 3219 3221 3223 3226 3229 3233 3236 3239 3241
3181 3182 3182 3183 3184 3184 3186 3186 3186 3185 3185 3185 3184 3183 3181 3183 3183 3183 3184 3185 3187 3189 3191 3192 3193 3195 3196 3199 3201 3203 3206 3209 3211 3213 3215 3218 3221 3223 3227 3230 3232 3234 3237 3240
3180 3180 3181 3181 3182 3182 3183 3182 3183 3182 3182 3182 3182 3183 3179 3180 3181 3182 3183 3184 3184 3185 3186 3188 3191 3193 3196 3197 3199 3201 3203 3205 3208 3210 3214 3217 3219 3222 3224 3227 3230 3233 3235 3237
3178 3179 3180 3181 3181 3181 3181 3180 3180 3179 3180 3176 3178 3179 3175 3178 3179 3180 3180 3181 3181 3182 3183 3184 3186 3189 3191 3193 3194 3196 3199 3202 3205 3207 3211 3214 3217 3220 3222 3226 3229 3232 3234 3236
3178 3178 3179 3180 3180 3179 3179 3179 3177 3175 3174 3168 3172 3172 3172 3175 3177 3177 3176 3176 3176 3177 3177 3178 3179 3182 3185 3187 3189 3191 3194 3197 3200 3203 3207 3210 3214 3217 3220 3223 3226 3229 3232 3234
3177 3179 3177 3177 3178 3177 3177 3177 3177 3173 3168 3167 3169 3164 3166 3171 3171 3169 3170 3171 3170 3170 3170 3172 3174 3174 3178 3182 3185 3187 3189 3192 3196 3199 3203 3207 3210 3213 3216 3219 3223 3226 3228 3232
3175 3175 3175 3175 3174 3176 3175 3176 3176 3175 3173 3171 3164 3161 3164 3166 3163 3163 3165 3165 3165 3165 3165 3166 3167 3168 3170 3174 3177 3181 3184 3187 3190 3194 3198 3202 3205 3208 3212 3215 3218 3221 3225 3227
3173 3174 3172 3172 3172 3172 3172 3173 3174 3173 3170 3166 3159 3159 3158 3157 3156 3157 3158 3159 3160 3159 3159 3159 3159 3160 3161 3166 3171 3175 3178 3182 3186 3189 3192 3196 3200 3204 3207 3210 3213 3217 3220 3223
3169 3170 3171 3169 3169 3168 3168 3168 3169 3170 3169 3164 3159 3153 3153 3151 3152 3151 3151 3152 3153 3153 3153 3152 3153 3152 3152 3157 3162 3168 3172 3176 3179 3182 3187 3191 3194 3198 3201 3204 3207 3211 3215 3217
3167 3167 3167 3167 3165 3164 3164 3165 3165 3166 3167 3165 3162 3148 3150 3149 3148 3148 3147 3145 3146 3146 3146 3146 3145 3145 3146 3150 3155 3160 3164 3168 3172 3177 3181 3185 3189 3191 3194 3197 3201 3204 3208 3212
3165 3165 3166 3164 3166 3164 3163 3162 3163 3163 3163 3160 3159 3144 3143 3145 3144 3145 3143 3140 3140 3140 3140 3140 3139 3138 3140 3142 3148 3153 3158 3163 3167 3171 3175 3179 3182 3184 3187 3191 3194 3197 3201 3205
3159 3160 3161 3160 3160 3160 3160 3159 3158 3159 3158 3154 3144 3138 3141 3140 3137 3137 3137 3137 3134 3133 3132 3133 3134 3132 3134 3137 3141 3147 3151 3157 3162 3165 3168 3171 3175 3178 3181 3185 3188 3191 3194 3197
3156 3155 3154 3154 3154 3153 3151 3152 3152 3151 3150 3147 3141 3132 3135 3135 3131 3130 3129 3128 3127 3126 3125 3126 3127 3128 3127 3132 3134 3139 3143 3148 3152 3157 3161 3165 3169 3172 3174 3177 3180 3183 3186 3189
3150 3149 3148 3147 3147 3146 3144 3144 3143 3142 3141 3136 3135 3124 3130 3127 3124 3124 3123 3120 3118 3118 3117 3118 3119 3120 3123 3125 3129 3132 3135 3140 3144 3147 3152 3157 3160 3164 3168 3171 3173 3175 3178 3181
3147 3146 3145 3144 3142 3141 3139 3134 3135 3134 3134 3131 3128 3124 3124 3121 3118 3117 3117 3115 3111 3109 3109 3110 3112 3113 3114 3118 3121 3125 3127 3130 3134 3139 3142 3144 3150 3154 3159 3163 3164 3167 3170 3173
3143 3143 3143 3141 3139 3135 3130 3129 3130 3128 3126 3126 3121 3118 3117 3113 3111 3111 3111 3108 3104 3101 3101 3102 3106 3107 3110 3111 3113 3117 3120 3121 3127 3129 3130 3134 3140 3143 3147 3151 3155 3158 3160 3163
3141 3140 3140 3138 3135 3129 3126 3125 3124 3122 3119 3119 3114 3111 3108 3105 3103 3104 3103 3102 3099 3095 3093 3094 3097 3100 3102 3106 3108 3108 3110 3114 3116 3117 3123 3126 3126 3132 3137 3142 3147 3149 3150 3153
3138 3138 3139 3136 3133 3124 3120 3120 3119 3116 3111 3111 3108 3105 3101 3098 3095 3098 3096 3094 3092 3089 3087 3087 3089 3091 3094 3096 3099 3100 3101 3104 3108 3109 3113 3110 3117 3123 3126 3131 3133 3138 3140 3141
3135 3134 3133 3132 3130 3121 3116 3113 3113 3112 3109 3102 3101 3099 3096 3093 3092 3089 3088 3087 3084 3081 3080 3080 3081 3084 3087 3090 3090 3091 3093 3096 3099 3100 3101 3105 3107 3113 3116 3123 3125 3126 3130 3133
3133 3132 3130 3128 3126 3119 3113 3112 3109 3102 3097 3094 3095 3095 3090 3087 3086 3083 3079 3076 3075 3073 3072 3070 3073 3074 3078 3082 3083 3085 3086 3089 3090 3092 3092 3094 3099 3104 3104 3114 3117 3105 3117 3124
3129 3129 3127 3125 3119 3114 3107 3101 3095 3091 3085 3086 3085 3088 3084 3081 3079 3075 3071 3068 3064 3062 3063 3065 3064 3067 3069 3073 3076 3078 3079 3083 3083 3085 3088 3092 3093 3097 3100 3103 3094 3100 3107 3112
3123 3121 3118 3116 3113 3106 3099 3094 3088 3084 3079 3077 3079 3079 3076 3074 3071 3068 3065 3059 3054 3057 3057 3058 3051 3057 3062 3070 3074 3075 3077 3079 3080 3083 3088 3089 3089 3091 3093 3097 3100 3100 3105 3109
3120 3116 3113 3109 3105 3100 3095 3089 3082 3075 3073 3072 3072 3070 3069 3067 3065 3061 3059 3053 3050 3052 3046 3036 3047 3049 3056 3065 3068 3071 3073 3077 3078 3080 3080 3081 3080 3081 3086 3091 3098 3101 3100 3100
3115 3112 3109 3104 3101 3096 3090 3083 3075 3070 3068 3068 3067 3066 3064 3061 3056 3054 3052 3050 3051 3053 3048 3038 3047 3052 3052 3058 3064 3068 3071 3073 3074 3078 3080 3081 3081 3082 3084 3091 3094 3094 3094 3096
Wind_Speed
13 9 7 7 6 6 5 4 5 7 5 9 9 8 7 8 10 7 6 7 6 8 13 16 17 16 15 15 13 13 14 16 19 18 16 20 23 24 23 23 23 22 21 19
14 8 8 8 7 7 9 10 10 7 6 13 11 10 6 8 5 8 7 4 4 7 14 18 21 21 19 16 14 14 15 16 16 18 15 19 21 23 24 24 23 22 20 18
9 8 8 6 10 8 9 11 10 10 13 9 11 11 6 7 7 8 7 9 9 8 9 15 20 22 22 22 19 16 16 16 16 15 18 22 23 24 26 26 24 22 19 16
6 6 5 7 6 8 6 8 13 14 12 7 8 7 10 7 7 9 6 8 7 10 12 12 18 21 24 22 22 21 20 19 19 19 20 21 21 23 23 24 23 22 20 17
8 3 3 4 3 3 5 8 11 14 13 14 13 8 9 5 9 12 8 7 10 10 12 14 14 19 21 23 24 23 22 22 21 21 21 21 21 21 23 24 24 23 22 20
6 4 4 3 1 2 7 8 8 11 13 17 18 14 15 14 10 6 6 11 12 12 15 18 20 17 21 24 25 26 26 25 24 24 22 22 21 21 23 23 24 24 22 21
5 5 5 2 1 1 4 5 4 5 8 14 14 13 18 12 9 10 13 13 15 14 14 16 21 23 22 29 29 29 28 28 27 26 25 24 23 23 23 23 23 24 23 22
4 5 3 2 5 5 1 1 1 4 4 5 4 9 8 10 11 14 14 12 15 13 14 15 15 20 26 27 32 32 30 29 29 28 27 26 25 25 26 27 26 26 24 23
1 2 4 9 6 5 3 3 5 5 11 7 9 12 15 14 19 20 20 17 12 14 17 16 15 16 24 28 32 35 33 30 29 28 27 27 27 27 26 27 29 28 26 25
3 5 8 5 5 3 6 8 3 5 4 5 6 8 11 15 19 23 24 23 18 13 19 21 18 17 21 29 28 32 34 32 28 27 27 26 26 27 27 28 30 30 26 26
6 3 4 7 4 6 3 6 8 8 5 4 5 7 10 13 15 19 23 25 24 17 17 19 18 18 23 28 32 30 34 34 31 29 27 26 25 25 28 30 31 31 28 27
0 4 5 6 3 3 12 6 5 5 5 7 7 16 19 24 28 24 22 23 22 24 20 19 16 16 24 28 31 31 35 38 35 29 25 25 25 26 27 30 31 31 31 28
11 3 3 4 6 12 8 6 6 6 9 14 11 10 11 13 19 26 30 29 28 28 27 22 16 9 21 26 30 31 33 36 36 31 27 23 22 25 29 30 31 32 32 32
14 11 12 12 6 8 14 17 15 11 13 20 31 38 33 38 38 37 32 30 35 36 29 24 22 11 13 20 25 31 32 34 36 34 31 28 25 20 24 28 31 32 32 32
7 10 15 17 19 21 24 23 22 22 25 25 29 37 35 33 35 32 30 29 30 31 36 27 27 21 14 18 26 33 33 35 36 38 35 32 28 26 22 25 30 33 34 32
16 11 13 16 16 18 24 22 25 25 27 35 35 45 36 36 33 29 30 31 32 34 35 33 29 24 22 19 20 19 30 34 37 40 39 34 33 32 28 24 26 30 33 34
13 8 6 8 12 10 15 23 17 19 20 26 28 31 26 31 33 33 31 31 33 37 34 30 25 21 23 23 16 16 18 24 32 39 41 39 38 37 35 31 26 28 30 33
7 8 9 8 10 8 6 8 11 21 28 24 29 32 31 35 36 35 32 31 31 33 32 25 25 24 22 22 21 28 20 23 35 31 35 36 38 39 39 39 33 29 30 32
6 4 5 6 10 20 24 19 17 18 21 19 32 35 39 33 37 35 33 30 32 36 29 24 31 29 26 28 25 18 21 20 32 45 39 36 37 40 40 39 37 34 34 35
9 9 10 11 10 9 10 12 16 20 23 18 20 19 23 27 32 31 25 25 31 37 33 23 28 36 34 32 31 27 20 26 28 24 47 36 33 41 39 38 43 41 38 40
8 12 11 12 12 15 17 21 20 16 15 18 21 26 29 29 28 28 29 28 33 34 25 22 25 36 34 31 30 30 27 28 28 35 36 41 26 36 42 44 46 45 42 42
7 6 8 6 8 11 14 19 18 24 29 40 30 25 29 32 30 32 38 36 38 33 29 23 30 22 32 33 26 30 31 32 26 30 29 45 32 30 30 39 44 37 39 40
7 10 14 11 15 26 32 37 43 45 46 42 41 27 31 33 33 35 36 37 40 35 35 28 34 28 26 25 27 30 22 19 19 20 25 19 27 36 20 25 21 18 27 32
15 15 18 20 19 23 24 22 23 25 29 28 29 28 27 29 30 33 30 30 28 26 35 27 34 35 22 24 20 21 22 23 20 13 18 25 27 24 23 34 23 20 26 12
12 16 18 23 19 24 23 25 32 28 27 24 20 24 26 27 28 26 25 24 19 17 16 16 25 23 33 22 19 17 14 11 9 6 3 3 9 16 17 18 14 18 19 17
12 15 18 20 19 21 26 32 27 17 18 13 15 16 21 25 25 21 21 13 22 4 6 20 27 21 16 10 14 15 12 11 9 9 7 5 4 7 12 16 13 10 10 13
Wind_Direction
209 199 204 233 231 223 299 312 327 337 328 317 340 313 288 275 255 238 231 231 224 215 210 201 193 186 184 188 195 192 196 196 186 189 187 188 188 190 188 190 190 191 191 192
212 206 217 225 242 255 267 284 281 296 285 321 323 309 275 269 297 282 266 250 254 205 220 213 208 202 199 199 203 209 200 195 197 190 194 189 196 194 193 194 194 195 196 198
191 188 210 233 254 268 266 259 275 281 277 310 308 302 260 257 278 262 248 241 240 234 233 229 227 220 206 204 203 204 208 204 198 200 201 194 197 196 196 195 193 196 202 203
164 192 220 244 247 261 278 249 257 272 286 278 285 294 280 269 256 270 254 258 259 256 247 231 230 232 222 211 205 206 209 211 211 210 210 207 202 200 199 200 198 201 204 206
134 171 166 195 211 289 278 277 272 271 282 288 270 251 266 253 261 269 268 298 310 288 258 252 243 235 231 218 214 209 213 211 210 213 210 212 208 205 205 206 208 210 208 206
146 152 143 125 12 332 323 309 277 270 265 255 249 246 255 259 280 320 321 305 311 300 283 259 249 228 224 223 217 214 214 214 214 213 213 214 212 210 210 212 215 216 217 217
144 171 186 196 330 265 311 305 261 227 216 248 238 248 243 247 268 280 293 306 301 293 283 278 257 243 228 224 220 217 217 217 217 216 217 217 213 217 215 217 220 222 223 222
174 188 199 269 342 338 287 58 308 269 266 300 242 245 251 231 223 254 272 281 292 281 285 283 287 248 233 228 227 223 218 220 219 219 218 218 217 221 222 219 222 224 226 222
332 233 226 301 297 308 222 202 247 278 285 278 247 264 252 238 258 258 255 259 271 268 268 271 275 266 240 225 227 227 223 220 224 225 224 224 224 223 224 225 225 226 225 228
252 292 274 266 308 213 239 236 247 218 256 246 247 268 244 239 250 245 249 248 254 259 270 269 270 271 239 224 225 224 226 221 224 227 229 229 230 228 228 228 227 227 230 232
321 248 252 295 267 273 214 198 211 222 233 270 285 247 228 239 272 271 262 263 265 268 276 270 266 264 226 224 220 220 223 223 217 221 226 229 230 231 227 230 228 230 232 235
149 284 268 273 251 222 163 145 170 226 220 249 272 265 244 264 278 288 279 271 275 266 280 287 268 266 230 215 211 216 222 222 220 216 223 230 234 231 230 230 231 232 236 238
309 235 286 276 205 183 190 220 265 277 273 253 258 254 234 252 266 272 284 277 281 276 270 284 267 273 234 213 213 215 218 223 219 213 216 225 233 233 231 229 230 230 233 237
288 252 240 247 258 237 247 262 266 264 253 261 255 277 287 293 296 295 291 279 278 274 277 273 279 255 254 211 209 214 214 218 222 219 216 224 232 239 240 236 233 232 231 234
287 263 265 261 259 265 268 266 266 258 259 256 272 279 287 300 298 302 303 285 274 275 268 271 265 265 233 235 210 209 215 214 216 217 219 224 230 238 242 240 236 233 232 231
296 273 270 271 266 262 267 268 266 266 266 268 275 280 289 293 295 296 300 299 278 274 275 268 260 256 242 234 237 231 220 218 221 219 216 224 229 235 241 250 245 238 235 233
282 267 256 266 288 281 268 267 263 266 264 272 271 282 287 290 288 291 289 293 288 277 281 275 255 247 240 240 233 232 234 234 225 222 222 223 228 230 232 238 242 240 238 235
284 269 259 273 293 253 268 208 239 280 280 274 276 281 286 287 288 290 296 289 292 285 279 276 253 244 245 239 234 236 243 241 233 238 228 220 224 225 223 230 233 234 233 235
270 258 279 267 267 283 289 274 277 275 280 267 267 268 274 283 280 287 289 299 292 294 281 272 255 249 243 244 245 243 236 242 235 227 238 232 226 227 227 227 231 231 227 231
268 272 283 280 279 277 287 277 282 285 282 270 263 272 292 289 286 288 292 295 287 291 280 272 249 253 250 247 239 239 237 244 241 252 235 248 234 228 228 234 233 228 227 227
289 295 274 274 271 280 291 288 286 263 269 244 270 276 281 281 285 290 283 285 298 288 265 274 268 243 241 233 230 229 228 233 250 258 253 235 239 232 238 237 238 231 232 230
285 293 290 278 286 291 304 300 284 271 267 284 285 284 273 278 284 290 291 285 287 272 240 233 255 255 235 237 233 234 235 232 240 258 242 226 242 249 224 233 241 226 229 234
292 287 281 262 273 301 297 290 283 279 276 269 275 285 278 275 281 287 290 293 289 248 248 223 234 244 231 223 239 240 240 241 222 225 232 237 248 252 211 218 215 217 222 240
315 309 289 297 329 322 326 314 307 291 282 280 272 276 273 273 280 287 288 297 260 270 247 228 220 230 218 220 207 204 217 224 236 240 242 243 253 259 289 251 235 216 214 191
307 313 312 308 323 325 328 328 326 297 286 283 282 274 283 276 279 279 284 312 263 257 195 164 168 173 184 183 172 176 175 171 169 168 172 225 255 255 259 259 245 198 201 179
313 314 319 313 319 322 329 328 327 326 303 293 289 281 293 295 284 271 274 285 239 29 69 119 145 163 171 164 164 169 172 184 186 171 189 218 204 179 199 199 208 243 214 195